Stündliche Wetter Holubyn

Heute, 25 Juni, Freitag

Zeit Temperatur Niederschläge Wind Luftdruck Luftfeuchtigkeit
00:00 +24°C° 0 mm 1 m/S 741 mmHg 85%
01:00 +24°C° 0 mm 1 m/S 741 mmHg 87%
02:00 +23°C° 0 mm 2 m/S 740 mmHg 89%
03:00 +23°C° 0 mm 1 m/S 740 mmHg 89%
04:00 +23°C° 0 mm 1 m/S 740 mmHg 90%
05:00 +23°C° 0 mm 1 m/S 740 mmHg 90%
06:00 +25°C° 0 mm 1 m/S 740 mmHg 85%
07:00 +27°C° 0 mm 1 m/S 740 mmHg 79%
08:00 +28°C° 0 mm 2 m/S 740 mmHg 74%
09:00 +29°C° 0 mm 2 m/S 740 mmHg 68%
10:00 +31°C° 0 mm 3 m/S 740 mmHg 61%
11:00 +33°C° 0 mm 4 m/S 740 mmHg 55%
12:00 +33°C° 0 mm 4 m/S 740 mmHg 53%
13:00 +33°C° 0 mm 4 m/S 740 mmHg 51%
14:00 +33°C° 0 mm 4 m/S 740 mmHg 49%
15:00 +33°C° 0 mm 4 m/S 740 mmHg 53%
16:00 +32°C° 0 mm 4 m/S 739 mmHg 56%
17:00 +32°C° 0 mm 4 m/S 739 mmHg 59%
18:00 +29°C° 0 mm 4 m/S 739 mmHg 66%
19:00 +27°C° 0 mm 3 m/S 739 mmHg 73%
20:00 +25°C° 0 mm 3 m/S 740 mmHg 80%
21:00 +22°C° 0 mm 3 m/S 740 mmHg 82%
22:00 +21°C° 0 mm 2 m/S 740 mmHg 85%
23:00 +19°C° 0 mm 2 m/S 740 mmHg 88%

Morgen, 26 Juni, Samstag

Zeit Temperatur Niederschläge Wind Luftdruck Luftfeuchtigkeit
00:00 +19°C° 0.2 mm 2 m/S 739 mmHg 89%
01:00 +19°C° 0.2 mm 2 m/S 739 mmHg 91%
02:00 +18°C° 0.2 mm 2 m/S 739 mmHg 93%
03:00 +18°C° 0.3 mm 2 m/S 739 mmHg 93%
04:00 +18°C° 0.3 mm 2 m/S 739 mmHg 94%
05:00 +18°C° 0.3 mm 2 m/S 739 mmHg 95%
06:00 +19°C° 0.2 mm 2 m/S 740 mmHg 90%
07:00 +21°C° 0.2 mm 2 m/S 740 mmHg 86%
08:00 +23°C° 0.2 mm 2 m/S 740 mmHg 82%
09:00 +24°C° 0.2 mm 2 m/S 740 mmHg 79%
10:00 +25°C° 0.2 mm 3 m/S 740 mmHg 76%
11:00 +25°C° 0.2 mm 3 m/S 740 mmHg 73%
12:00 +26°C° 0 mm 3 m/S 740 mmHg 71%
13:00 +27°C° 0 mm 3 m/S 740 mmHg 69%
14:00 +27°C° 0 mm 3 m/S 740 mmHg 68%
15:00 +27°C° 0.1 mm 3 m/S 740 mmHg 71%
16:00 +26°C° 0.1 mm 3 m/S 739 mmHg 73%
17:00 +26°C° 0.1 mm 3 m/S 739 mmHg 76%
18:00 +25°C° 0.1 mm 3 m/S 739 mmHg 81%
19:00 +24°C° 0.1 mm 3 m/S 739 mmHg 85%
20:00 +22°C° 0.1 mm 3 m/S 739 mmHg 90%
21:00 +21°C° 1.3 mm 3 m/S 739 mmHg 92%
22:00 +20°C° 1.3 mm 2 m/S 739 mmHg 94%
23:00 +19°C° 1.3 mm 2 m/S 740 mmHg 97%

übermorgen, 27 Juni, Sonntag

Zeit Temperatur Niederschläge Wind Luftdruck Luftfeuchtigkeit
00:00 +18°C° 0 mm 2 m/S 740 mmHg 97%
01:00 +18°C° 0 mm 2 m/S 740 mmHg 97%
02:00 +18°C° 0 mm 3 m/S 740 mmHg 97%
03:00 +18°C° 0 mm 3 m/S 740 mmHg 97%
04:00 +18°C° 0 mm 3 m/S 740 mmHg 97%
05:00 +18°C° 0 mm 3 m/S 740 mmHg 97%
06:00 +19°C° 0 mm 4 m/S 740 mmHg 95%
07:00 +19°C° 0 mm 4 m/S 740 mmHg 93%
08:00 +20°C° 0 mm 4 m/S 740 mmHg 91%
09:00 +21°C° 0 mm 4 m/S 740 mmHg 87%
10:00 +22°C° 0 mm 4 m/S 740 mmHg 84%
11:00 +22°C° 0 mm 4 m/S 740 mmHg 80%
12:00 +23°C° 0.5 mm 4 m/S 740 mmHg 79%
13:00 +23°C° 0.5 mm 4 m/S 740 mmHg 78%
14:00 +25°C° 0.5 mm 4 m/S 740 mmHg 77%
15:00 +25°C° 0.6 mm 4 m/S 740 mmHg 78%
16:00 +23°C° 0.6 mm 4 m/S 740 mmHg 79%
17:00 +23°C° 0.6 mm 4 m/S 740 mmHg 80%
18:00 +22°C° 0.2 mm 3 m/S 740 mmHg 82%
19:00 +21°C° 0.2 mm 3 m/S 740 mmHg 84%
20:00 +20°C° 0.2 mm 2 m/S 740 mmHg 86%
21:00 +20°C° 0 mm 2 m/S 740 mmHg 87%
22:00 +19°C° 0 mm 3 m/S 741 mmHg 88%
23:00 +18°C° 0 mm 3 m/S 741 mmHg 88%

28 Juni, Montag

Zeit Temperatur Niederschläge Wind Luftdruck Luftfeuchtigkeit
00:00 +18°C° 0 mm 3 m/S 741 mmHg 89%
01:00 +17°C° 0 mm 3 m/S 741 mmHg 91%
02:00 +17°C° 0 mm 3 m/S 741 mmHg 92%
03:00 +17°C° 0 mm 3 m/S 741 mmHg 92%
04:00 +16°C° 0 mm 3 m/S 741 mmHg 93%
05:00 +16°C° 0 mm 3 m/S 741 mmHg 93%
06:00 +17°C° 0 mm 3 m/S 741 mmHg 87%
07:00 +19°C° 0 mm 4 m/S 742 mmHg 80%
08:00 +20°C° 0 mm 4 m/S 742 mmHg 74%
09:00 +22°C° 0 mm 4 m/S 742 mmHg 69%
10:00 +23°C° 0 mm 4 m/S 742 mmHg 63%
11:00 +25°C° 0 mm 4 m/S 742 mmHg 58%
12:00 +26°C° 0 mm 4 m/S 742 mmHg 55%
13:00 +26°C° 0 mm 4 m/S 742 mmHg 52%
14:00 +27°C° 0 mm 4 m/S 742 mmHg 49%
15:00 +27°C° 0 mm 4 m/S 741 mmHg 52%
16:00 +26°C° 0 mm 3 m/S 741 mmHg 55%
17:00 +26°C° 0 mm 3 m/S 741 mmHg 58%
18:00 +25°C° 0 mm 3 m/S 741 mmHg 62%
19:00 +22°C° 0 mm 3 m/S 741 mmHg 66%
20:00 +21°C° 0 mm 3 m/S 741 mmHg 70%
21:00 +20°C° 0 mm 3 m/S 741 mmHg 72%
22:00 +19°C° 0 mm 3 m/S 741 mmHg 75%
23:00 +17°C° 0 mm 3 m/S 741 mmHg 77%

29 Juni, Dienstag

Zeit Temperatur Niederschläge Wind Luftdruck Luftfeuchtigkeit
00:00 +17°C° 0 mm 2 m/S 741 mmHg 79%
01:00 +16°C° 0 mm 2 m/S 741 mmHg 82%
02:00 +16°C° 0 mm 2 m/S 741 mmHg 84%
03:00 +16°C° 0 mm 2 m/S 741 mmHg 85%
04:00 +16°C° 0 mm 2 m/S 741 mmHg 85%
05:00 +16°C° 0 mm 2 m/S 741 mmHg 86%
06:00 +17°C° 0 mm 2 m/S 741 mmHg 80%
07:00 +19°C° 0 mm 2 m/S 741 mmHg 74%
08:00 +21°C° 0 mm 3 m/S 741 mmHg 68%
09:00 +22°C° 0 mm 3 m/S 741 mmHg 63%
10:00 +25°C° 0 mm 3 m/S 741 mmHg 58%
11:00 +26°C° 0 mm 3 m/S 740 mmHg 53%
12:00 +26°C° 0 mm 3 m/S 740 mmHg 52%
13:00 +27°C° 0 mm 3 m/S 740 mmHg 51%
14:00 +27°C° 0 mm 3 m/S 740 mmHg 50%
15:00 +27°C° 0 mm 3 m/S 740 mmHg 54%
16:00 +26°C° 0 mm 3 m/S 739 mmHg 58%
17:00 +26°C° 0 mm 2 m/S 739 mmHg 62%
18:00 +25°C° 0 mm 2 m/S 739 mmHg 65%
19:00 +23°C° 0 mm 2 m/S 739 mmHg 69%
20:00 +21°C° 0 mm 2 m/S 739 mmHg 73%
21:00 +20°C° 0 mm 2 m/S 739 mmHg 75%
22:00 +19°C° 0 mm 2 m/S 739 mmHg 77%
23:00 +19°C° 0 mm 1 m/S 739 mmHg 78%

30 Juni, Mittwoch

Zeit Temperatur Niederschläge Wind Luftdruck Luftfeuchtigkeit
00:00 +19°C° 0 mm 1 m/S 738 mmHg 79%
01:00 +19°C° 0 mm 1 m/S 738 mmHg 79%
02:00 +18°C° 0 mm 1 m/S 738 mmHg 80%
03:00 +18°C° 0 mm 1 m/S 738 mmHg 80%
04:00 +18°C° 0 mm 1 m/S 738 mmHg 81%
05:00 +18°C° 0 mm 1 m/S 738 mmHg 81%
06:00 +20°C° 0 mm 1 m/S 738 mmHg 76%
07:00 +22°C° 0 mm 1 m/S 738 mmHg 71%
08:00 +24°C° 0 mm 1 m/S 738 mmHg 66%
09:00 +25°C° 0 mm 1 m/S 738 mmHg 62%
10:00 +26°C° 0 mm 1 m/S 737 mmHg 58%
11:00 +28°C° 0 mm 1 m/S 737 mmHg 54%
12:00 +28°C° 0 mm 1 m/S 737 mmHg 53%
13:00 +29°C° 0 mm 1 m/S 737 mmHg 52%
14:00 +30°C° 0 mm 2 m/S 737 mmHg 51%
15:00 +30°C° 0 mm 2 m/S 736 mmHg 53%
16:00 +30°C° 0 mm 1 m/S 736 mmHg 55%
17:00 +30°C° 0 mm 1 m/S 736 mmHg 57%
18:00 +28°C° 0.4 mm 2 m/S 736 mmHg 65%
19:00 +27°C° 0.4 mm 2 m/S 735 mmHg 73%
20:00 +25°C° 0.4 mm 2 m/S 735 mmHg 80%
21:00 +24°C° 1 mm 2 m/S 735 mmHg 84%
22:00 +22°C° 1 mm 3 m/S 735 mmHg 88%
23:00 +21°C° 1 mm 3 m/S 735 mmHg 91%
Mehr zeigen

Wir brauchen deine Erlaubnis

Meteoprog und unser Service Anbieter werden persönliche Daten aufbewahren, so wie Cookies, Geräte Bezeichnung oder ähnliche Technologien von deinem Gerät und Prozess, so wie Persönliche Daten Inhalte und Werbungen, genauso wie social Media und den Verkehr zu analysieren.

  • Aufbewahrung und/oder Zugang zu deiner Geräte Informationen.

    Cookies, Geräte Bezeichnung oder andere Informationen, können aufbewahrt oder Zugang zu deinem Gerät erhalten, für den Grund, der oben angegeben wird.

  • Personalisierte Werbung und Inhalte, Messungen, Einblick in das Publikum und Produkt Entwicklung.

    Werbungen und Inhalte können personalisiert werden, basierend auf ein Profil. Mehr Daten können besser personalisierte Werbungen und Inhalte hinzufügen. Werbung und Inhalte können gezeigt und gemessen werden. Einblicke über das Publikum, welche die Werbung gesehen haben und den Inhalt, können abgeleitet werden. So wie Daten können genutzt werden, um es zu verbessern oder die Benutzer Erfahrung zu verbessern das System und die Software.

Wenn du “Ich stimme zu” klickst, erlaubst du uns, die Cookies zu benutzen die Geräte Bezeichnung, den Web oder ähnliche Technologien zu benutzen. Deine Settings, können in deinem Gerät bei deinem Browser geändert werden.

Für den bestimmten Zweck, berechtigten Interessen beruhen darauf, mehr als auf den Inhalt. Du kannst mehr darüber in unseren Privaten und Cookie Politik lesen.